Weather History for Pardubice, Czech Republic

Change the Weather History Date:

Monday, October 8, 2012

  Actual Average Record
Temperature  
Mean Temperature 47 °F -  
Max Temperature 53 °F - - ()
Min Temperature 41 °F - - ()
Degree Days  
Heating Degree Days 18    
Moisture  
Dew Point 40 °F    
Average Humidity 76    
Maximum Humidity 93    
Minimum Humidity 62    
Precipitation  
Precipitation 0.00 in - - ()
Sea Level Pressure  
Sea Level Pressure 30.11 in    
Wind  
Wind Speed 7 mph ()    
Max Wind Speed 12 mph    
Max Gust Speed -    
Visibility 6.2 miles    
Events      
T = Trace of Precipitation, MM = Missing Value Source: Averaged Metar Reports

Daily Weather History Graph

Daily Weather History Graph

Search for Another Location

Airport:

Trip Planner

Search our weather history database for the weather conditions in past years. The results will help you decide how hot, cold, wet, or windy it might be!

Date:

Astronomy

Oct. 08, 2012 Rise Set
Actual Time 7:08 AM CEST 6:19 PM CEST
Civil Twilight 6:35 AM CEST 6:52 PM CEST
Nautical Twilight 5:58 AM CEST 7:29 PM CEST
Astronomical Twilight 5:20 AM CEST 8:07 PM CEST
Moon 11:53 PM CEST (10/8) 2:34 PM CEST (10/8)
Length of Visible Light 12h 16m
Length of Day
11h 11m
Waning Gibbous, 49% of the Moon is Illuminated
Oct 8
Waning Gibbous
Oct 15
New
Oct 22
First Quarter
Oct 29
Full
Nov 7
Last Quarter

Hourly Weather History & Observations

Time (CEST) Temp. Windchill Dew Point Humidity Pressure Visibility Wind Dir Wind Speed Gust Speed Precip Events Conditions
12:00 AM 48.2 °F - 41.0 °F 76% 30.09 in - West 9.2 mph - N/A   Clear
1:00 AM 48.2 °F - 42.8 °F 82% 30.12 in 6.2 mi WNW 8.1 mph - N/A   Mostly Cloudy
2:00 AM 46.4 °F 41.9 °F 42.8 °F 87% 30.12 in 6.2 mi West 9.2 mph - N/A   Mostly Cloudy
3:00 AM 46.4 °F 42.9 °F 41.0 °F 81% 30.12 in - West 6.9 mph - N/A   Clear
4:00 AM 46.4 °F 41.5 °F 41.0 °F 81% 30.12 in - West 10.4 mph - N/A   Clear
5:00 AM 46.4 °F 41.9 °F 41.0 °F 81% 30.12 in - WNW 9.2 mph - N/A   Clear
6:00 AM 44.6 °F 39.7 °F 41.0 °F 87% 30.15 in - West 9.2 mph - N/A   Clear
7:00 AM 46.4 °F 42.4 °F 41.0 °F 81% 30.15 in - West 8.1 mph - N/A   Clear
8:00 AM 46.4 °F 41.5 °F 41.0 °F 81% 30.15 in - West 10.4 mph - N/A   Clear
9:00 AM 46.4 °F 41.5 °F 41.0 °F 81% 30.15 in - West 10.4 mph - N/A   Clear
10:03 AM 50.0 °F - 41.0 °F 71% 30.15 in - West 11.5 mph - N/A   Clear
11:00 AM 51.8 °F - 41.0 °F 67% 30.15 in 6.2 mi West 11.5 mph - N/A   Mostly Cloudy
12:00 PM 51.8 °F - 41.0 °F 67% 30.15 in 6.2 mi NW 8.1 mph - N/A   Mostly Cloudy
1:00 PM 51.8 °F - 39.2 °F 62% 30.15 in 6.2 mi West 10.4 mph - N/A   Mostly Cloudy
2:00 PM 51.8 °F - 39.2 °F 62% 30.12 in 6.2 mi West 11.5 mph - N/A   Mostly Cloudy
3:00 PM 51.8 °F - 39.2 °F 62% 30.12 in 6.2 mi WNW 10.4 mph - N/A   Mostly Cloudy
4:00 PM 53.6 °F - 41.0 °F 62% 30.09 in 6.2 mi WNW 8.1 mph - N/A   Mostly Cloudy
5:00 PM 51.8 °F - 39.2 °F 62% 30.09 in 6.2 mi West 5.8 mph - N/A   Scattered Clouds
6:00 PM 48.2 °F - 39.2 °F 71% 30.06 in 6.2 mi West 3.5 mph - N/A   Scattered Clouds
7:00 PM 46.4 °F - 41.0 °F 81% 30.06 in - Calm Calm - N/A   Clear
8:00 PM 42.8 °F - 41.0 °F 93% 30.06 in - Variable 2.3 mph - N/A   Clear
10:00 PM 41.0 °F - 37.4 °F 87% 30.01 in - Variable 1.2 mph - N/A   Clear
11:00 PM 41.0 °F - 37.4 °F 87% 30.01 in - East 2.3 mph - N/A   Clear